{"data":{"norad_id":66430,"intl_designator":"2025-259J","name":"STARLINK-35470","alt_names":[],"object_type":"PAYLOAD","status":"ACTIVE","operator":null,"country":"US","launch_date":"2025-11-11","launch_site_code":"AFETR","launch_vehicle":null,"mission":null,"orbit_class":"UNKNOWN","rcs_meters":null,"size_class":null,"mass_kg":null,"dimensions":null,"purposes":["comms"],"wikipedia_slug":null,"has_3d_model":false,"image_url":null,"decayed_at":null,"tle_current":{"epoch":"2026-09-20T16:09:17.048736Z","epoch_age_seconds":78207,"freshness":"FRESH","line1":"1 66430U 25259J   26263.67311399  .00013819  00000+0  51054-3 0  9999","line2":"2 66430  42.9983 252.9934 0001580 271.8757  88.1913 15.27593673 49316","mean_motion":15.27593673,"eccentricity":0.000158,"inclination_deg":42.9983,"raan_deg":252.9934,"arg_perigee_deg":271.8757,"mean_anomaly_deg":88.1913,"bstar":0.00051054,"rev_number":4931,"period_min":94.265904962281,"perigee_km":481.92409352979,"apogee_km":484.0922153986,"semimajor_km":6861.1451544642,"source":"CELESTRAK","updated_at":"2026-09-21T09:00:35.907512Z"}}}